This is the latest recevied weather packets stored in our database for station/object K4IR. If no packets are shown the sender has not sent any weather packets the latest 10 day(s).
| Time | Temp. | Humidity | Pressure | Rain* | Wind** | Luminosity | Snow |
|---|---|---|---|---|---|---|---|
| 1788375827 | 34.44° C | 66% | 1018 hPa | 0 mm | - | 194 W/m² | - |
| 1788375224 | 33.33° C | 67% | 1018 hPa | 0 mm | - | 659 W/m² | - |
| 1788374620 | 33.33° C | 64% | 1018.1 hPa | 0 mm | - | 652 W/m² | - |
| 1788374018 | 34.44° C | 60% | 1017.9 hPa | 0 mm | - | 118 W/m² | - |
| 1788373416 | 34.44° C | 58% | 1018.1 hPa | 0 mm | - | 687 W/m² | - |
| 1788372813 | 35° C | 59% | 1018.1 hPa | 0 mm | - | 672 W/m² | - |
| 1788372209 | 34.44° C | 60% | 1018.3 hPa | 0 mm | - | 691 W/m² | - |
| 1788371605 | 35° C | 62% | 1018.3 hPa | 0 mm | - | 704 W/m² | - |
| 1788371003 | 33.89° C | 61% | 1018.5 hPa | 0 mm | - | 700 W/m² | - |
| 1788370398 | 34.44° C | 61% | 1018.5 hPa | 0 mm | - | 704 W/m² | - |
| 1788369798 | 33.89° C | 60% | 1018.5 hPa | 0 mm | - | 709 W/m² | - |
| 1788369194 | 33.33° C | 60% | 1018.6 hPa | 0 mm | - | 712 W/m² | - |
| 1788368592 | 33.33° C | 66% | 1018.7 hPa | 0 mm | - | 710 W/m² | - |
| 1788367987 | 33.89° C | 61% | 1018.7 hPa | 0 mm | - | 709 W/m² | - |
| 1788367382 | 32.78° C | 61% | 1018.7 hPa | 0 mm | - | 705 W/m² | - |
| 1788366777 | 32.78° C | 62% | 1018.9 hPa | 0 mm | - | 702 W/m² | - |
| 1788366176 | 32.78° C | 62% | 1018.8 hPa | 0 mm | - | 696 W/m² | - |
| 1788365572 | 32.78° C | 62% | 1018.8 hPa | 0 mm | - | 687 W/m² | - |
| 1788364968 | 32.22° C | 63% | 1018.8 hPa | 0 mm | - | 680 W/m² | - |
| 1788364365 | 32.22° C | 61% | 1019 hPa | 0 mm | - | 670 W/m² | - |
| 1788363762 | 31.67° C | 65% | 1018.8 hPa | 0 mm | - | 614 W/m² | - |
| 1788363161 | 31.67° C | 68% | 1019 hPa | 0 mm | - | 114 W/m² | - |
| 1788362558 | 31.11° C | 67% | 1018.7 hPa | 0 mm | - | 120 W/m² | - |
| 1788361954 | 30.56° C | 68% | 1018.8 hPa | 0 mm | - | 211 W/m² | - |
| 1788361351 | 30.56° C | 68% | 1018.8 hPa | 0 mm | - | 88 W/m² | - |
* Rain latest hour (hover to see other rain measurements)
** Current wind speed in m/s (hover to see current wind gust speed)